Regional Weather Roundup
Issued by NWS

Home | Current Version | Previous Version | Graphics & Text | Print | Product List | Glossary Off
Versions: 1 2 3 4 5 6 7 8 9 10 11 12 13 14 15 16 17 18 19 20 21 22 23 24 25 26 27 28 29 30 31 32 33 34 35 36 37 38 39 40 41 42 43 44 45 46 47 48 49 50

000
ASUS43 KTOP 011208
RWRKS

WEATHER ROUNDUP FOR KANSAS
NATIONAL WEATHER SERVICE GOODLAND KS
600 AM CST SUN MAR 01 2015

NOTE:  "FAIR" INDICATES FEW OR NO CLOUDS BELOW 12,000 FEET WITH NO
SIGNIFICANT WEATHER AND/OR OBSTRUCTIONS TO VISIBILITY.

KSZ001>006-013>018-027>032-041>047-011300-
NORTHWEST KANSAS

CITY           SKY/WX    TMP DP  RH WIND       PRES   REMARKS
GOODLAND       CLOUDY    20  18  92 S6        30.17R
6HR MIN TEMP:  18; 6HR MAX TEMP:  20;

HAYS           CLOUDY    18   7  62 CALM      30.29R
HILL CITY      CLOUDY    18  15  88 CALM      30.27R
6HR MIN TEMP:  17; 6HR MAX TEMP:  20;

RUSSELL        CLOUDY    17  15  92 SW5       30.29R
6HR MIN TEMP:  15; 6HR MAX TEMP:  18; 6HR PCP: TRACE;

$$

KSZ061>065-074>080-084>089-011300-
SOUTHWEST KANSAS

CITY           SKY/WX    TMP DP  RH WIND       PRES   REMARKS
DODGE CITY     CLOUDY    20  17  88 S3        30.24R FOG
6HR MIN TEMP:  19; 6HR MAX TEMP:  20;

ELKHART          N/A     22  19  89 N3          N/A
GARDEN CITY    CLOUDY    19  18  95 CALM      30.21R FOG
6HR MIN TEMP:  19; 6HR MAX TEMP:  19;

GREAT BEND     CLOUDY    18  12  79 CALM      30.30R
LIBERAL        CLOUDY    23  18  80 E3        30.20R
PRATT          MOCLDY    21  19  93 CALM      30.30S FOG
$$

KSZ066>073-081>083-090>101-011300-
SOUTHEAST KANSAS

CITY           SKY/WX    TMP DP  RH WIND       PRES   REMARKS
CHANUTE        CLOUDY    23  21  92 CALM      30.36R
6HR MIN TEMP:  23; 6HR MAX TEMP:  24;

COFFEYVILLE    CLOUDY    25  24  96 N3        30.38R FOG
6HR MIN TEMP:  25; 6HR MAX TEMP:  25; 6HR PCP: TRACE;

HUTCHINSON     CLOUDY    22  19  89 CALM      30.32R FOG
6HR MIN TEMP:  21; 6HR MAX TEMP:  22; 6HR PCP: TRACE;

MEDICINE LODGE   N/A     21  19  92 N5        30.31S
NEWTON         CLOUDY    21  16  79 CALM      30.34R
PARSONS        CLOUDY    25  24  96 MISG      30.37R FOG
6HR MIN TEMP:  25; 6HR MAX TEMP:  25;

WICHITA INTL   FOG       23  21  92 CALM      30.34R VSB 1
6HR MIN TEMP:  22; 6HR MAX TEMP:  23;

WICHITA JABRA  MIX PCPN  22  20  92 CALM      30.33S VSB 1/2
6HR MIN TEMP:  21; 6HR MAX TEMP:  22; 6HR PCP: TRACE;

WINFIELD       CLOUDY    23  22  96 CALM      30.36R
6HR MIN TEMP:  23; 6HR MAX TEMP:  24; 6HR PCP: TRACE;

$$

KSZ007>012-019>026-033>040-048>060-102>105-011300-
NORTHEAST KANSAS

CITY           SKY/WX    TMP DP  RH WIND       PRES   REMARKS
CONCORDIA      PTCLDY    18  16  92 SW3       30.32R
6HR MIN TEMP:  18; 6HR MAX TEMP:  21;

EMPORIA        CLOUDY    21  19  92 CALM      30.34R
6HR MIN TEMP:  21; 6HR MAX TEMP:  22; 6HR PCP: TRACE;

LAWRENCE       CLOUDY    21  19  92 CALM      30.37R
6HR MIN TEMP:  21; 6HR MAX TEMP:  23; 6HR PCP: TRACE;

MANHATTAN      MOCLDY    19  16  88 CALM      30.36R
6HR MIN TEMP:  18; 6HR MAX TEMP:  23;

MARYSVILLE     CLOUDY    21  19  93 CALM      30.33S
OLATHE IND     CLOUDY    21  19  92 N6        30.36R
6HR MIN TEMP:  21; 6HR MAX TEMP:  22; 6HR PCP: TRACE;

OLATHE EXE     CLOUDY    22  20  92 N5        30.34R
6HR MIN TEMP:  22; 6HR MAX TEMP:  22; 6HR PCP: TRACE;

SALINA         CLOUDY    18  15  88 CALM      30.34S
6HR MIN TEMP:  15; 6HR MAX TEMP:  22;

TOPEKA BILLARD CLOUDY    22  18  85 CALM      30.38R
6HR MIN TEMP:  22; 6HR MAX TEMP:  23; 6HR PCP: TRACE;

TOPEKA FORBES  CLOUDY    22  19  89 CALM      30.35S
6HR MIN TEMP:  22; 6HR MAX TEMP:  23; 6HR PCP: TRACE;

$$



USA.gov is the U.S. government's official web portal to all federal, state and local government web resources and services.